Tracking 28520 objects as of 29-Feb-2024
HD Live streaming from Space Station
objects crossing your sky now

ARIANE 2 DEB

Track ARIANE 2 DEB now!


NORAD ID: 27595
Int'l Code: 1988-040E
Perigee: 486.3 km
Apogee: 35,396.8 km
Inclination: 7.7 °
Period: 628.8 minutes
Semi major axis: 24312 km
RCS: 8.9719 m2 (large)
Launch date: May 17, 1988
Source: France (FR)
Launch site: FRENCH GUIANA (FRGUI)

Note: This is SATELLITE DEBRIS
Your satellite tracking list
Your tracking list is empty




NASA's NSSDC Master Catalog

Two Line Element Set (TLE):
1 27595U 88040E   24058.13837215  .00000061  00000-0  89143-3 0  9992
2 27595   7.7485 324.9073 7179538 159.9853 257.4034  2.29011744180328
Source of the keplerian elements: AFSPC